To NAV CANADA Home Page Login to a new session Search on AWWS site Feedback and Comments Disclaimer Vers la page française équivalente Tips FAQ What's new on the site To the Forecasts and Observations / NOTAM section To "File a Flight Plan" website Publications and other links Update of the User's profile FIC Telephone Numbers My Weather Data Folder Route Weather Data Regional Weather Data Local Weather Data To the Forecasts and Observations / NOTAM section
Request Generated 08/22/2017 at 03:34:28 UTC . Weather information available at that time is displayed.

METAR/TAF

NAUJAAT/NU    

LWIS CYUT 220300Z AUTO 35017KT 07/02 A2994=
LWIS CYUT 220200Z AUTO 34013KT 08/01 A2996=
LWIS CYUT 220100Z AUTO 36016KT 09/01 A2996=

*** REMARK        : Forecast period has ended; this was the last TAF issued
*** REMARQUE : La période de prévision est échue; ceci était le dernier TAF qui a été émis
TAF CYUT 211843Z 2119/2122 34012KT P6SM BKN180
RMK NXT FCST WILL BE ISSUED AT 221345Z=
Your time UTC time
Weather data provided by Environment Canada and NAV CANADA